Date String (YYYY-MM-DD hh:mm:ss) UTC,Instrument flags,Ambient pressure (hPa),Sample flow (lpm),Bypass flow (lpm),Sample temperature (°C),Ambient temperature (°C),ASC tube jacket temperature (°C),LED temperature (°C),Box temperature (°C),Sample RH (%),Mass concentration (μg/m³),Mass concentration (μg/m³)
DateTimeUTC,F1_M11,P_M11,Q1_M11,Q2_M11,T1_M11,T2_M11,T3_M11,T4_M11,T5_M11,U1_M11,X0_M11,X2_M11
2021-08-18 01:00:00,,0822.3,4.99,0.00,29.0,27.6,00.0,38.0,30.9,20.9,0018.45,0013.07
2021-08-18 01:01:00,,0822.3,5.01,0.00,29.1,27.9,00.0,38.1,31.1,20.5,0018.59,0013.11
2021-08-18 01:02:00,,0822.3,4.98,0.00,29.2,28.2,00.0,38.1,31.1,20.5,0018.66,0013.15
2021-08-18 01:03:00,,0822.4,5.00,0.00,29.2,28.4,00.0,38.1,31.2,20.5,0018.63,0013.20
2021-08-18 01:04:00,,0822.4,5.01,0.00,29.2,27.5,00.0,38.1,31.0,20.5,0018.63,0013.22
2021-08-18 01:05:00,,0822.4,5.00,0.00,29.1,25.8,00.0,38.1,30.4,21.4,0018.88,0013.34
2021-08-18 01:06:00,,0822.3,5.00,0.00,29.0,25.7,00.0,38.1,30.3,22.0,0019.26,0013.49
2021-08-18 01:07:00,,0822.3,4.99,0.00,28.9,26.1,00.0,38.1,30.4,22.1,0018.62,0013.66
2021-08-18 01:08:00,,0822.3,5.00,0.00,28.9,26.5,00.0,38.0,30.6,22.3,0019.04,0013.91
2021-08-18 01:09:00,,0822.2,5.01,0.00,28.9,26.9,00.0,38.0,30.7,22.2,0019.60,0014.20
2021-08-18 01:10:00,,0822.2,5.00,0.00,29.0,27.3,00.0,38.0,30.8,22.2,0020.43,0014.51
2021-08-18 01:11:00,,0822.2,5.00,0.00,29.0,27.7,00.0,38.1,31.0,22.1,0020.47,0014.83
2021-08-18 01:12:00,,0822.2,5.01,0.00,29.1,27.9,00.0,38.1,31.1,21.8,0021.17,0015.09
2021-08-18 01:13:00,,0822.2,5.00,0.00,29.2,28.2,00.0,38.1,31.1,21.8,0022.14,0015.37
2021-08-18 01:14:00,,0822.2,5.01,0.00,29.2,27.6,00.0,38.1,31.0,21.3,0022.58,0015.59
2021-08-18 01:15:00,,0822.1,4.99,0.00,29.1,25.8,00.0,38.1,30.5,21.8,0023.05,0015.86
2021-08-18 01:16:00,,0822.1,5.00,0.00,28.9,25.5,00.0,38.1,30.3,22.2,0023.35,0016.06
2021-08-18 01:17:00,,0822.1,5.01,0.00,28.9,25.9,00.0,38.0,30.5,22.1,0023.53,0016.20
2021-08-18 01:18:00,,0822.1,5.01,0.00,28.9,26.3,00.0,38.0,30.5,21.9,0024.06,0016.32
2021-08-18 01:19:00,,0822.0,5.01,0.00,28.9,26.8,00.0,38.0,30.7,21.5,0025.77,0016.32
2021-08-18 01:20:00,,0822.0,4.99,0.00,28.9,27.2,00.0,38.0,30.8,21.4,0026.70,0016.29
2021-08-18 01:21:00,,0822.0,5.01,0.00,29.0,27.5,00.0,38.0,30.9,21.5,0026.36,0016.22
2021-08-18 01:22:00,,0822.0,4.99,0.00,29.1,27.8,00.0,38.0,31.0,21.6,0026.54,0016.20
2021-08-18 01:23:00,,0822.0,5.00,0.00,29.1,28.0,00.0,38.1,31.1,21.7,0026.20,0016.15
2021-08-18 01:24:00,,0821.9,5.01,0.00,29.2,28.3,00.0,38.1,31.2,21.8,0025.87,0016.02
2021-08-18 01:25:00,,0821.9,5.00,0.00,29.2,27.9,00.0,38.1,31.1,21.7,0025.71,0015.95
2021-08-18 01:26:00,,0821.9,5.01,0.00,29.1,26.2,00.0,38.1,30.6,21.9,0025.82,0015.90
2021-08-18 01:27:00,,0821.9,5.00,0.00,29.0,25.5,00.0,38.1,30.4,22.2,0025.64,0015.82
2021-08-18 01:28:00,,0821.8,5.00,0.00,28.9,25.8,00.0,38.1,30.4,22.4,0026.50,0015.75
2021-08-18 01:29:00,,0821.8,4.99,0.00,28.9,26.3,00.0,38.0,30.5,22.5,0026.07,0015.66
2021-08-18 01:30:00,,0821.8,4.99,0.00,28.9,26.7,00.0,38.0,30.6,22.5,0024.06,0015.57
2021-08-18 01:31:00,,0821.8,5.00,0.00,28.9,27.1,00.0,38.0,30.8,22.5,0023.22,0015.51
2021-08-18 01:32:00,,0821.8,4.99,0.00,29.0,27.5,00.0,38.0,30.9,22.3,0023.28,0015.49
2021-08-18 01:33:00,,0821.8,5.01,0.00,29.0,27.8,00.0,38.0,31.0,22.3,0023.00,0015.42
2021-08-18 01:34:00,,0821.8,4.99,0.00,29.1,28.0,00.0,38.0,31.1,22.1,0022.57,0015.36
2021-08-18 01:35:00,,0821.9,4.99,0.00,29.2,28.2,00.0,38.1,31.1,21.9,0022.62,0015.35
2021-08-18 01:36:00,,0821.8,5.01,0.00,29.2,28.4,00.0,38.1,31.2,21.7,0023.73,0015.35
2021-08-18 01:37:00,,0821.8,5.00,0.00,29.3,27.6,00.0,38.1,31.0,21.8,0024.06,0015.29
2021-08-18 01:38:00,,0821.8,5.00,0.00,29.1,25.8,00.0,38.1,30.4,21.9,0024.61,0015.24
2021-08-18 01:39:00,,0821.7,5.00,0.00,28.9,25.5,00.0,38.1,30.3,22.0,0023.49,0015.16
2021-08-18 01:40:00,,0821.8,5.01,0.00,28.9,25.9,00.0,38.1,30.5,22.2,0023.82,0015.14
2021-08-18 01:41:00,,0821.8,5.00,0.00,28.9,26.4,00.0,38.0,30.6,22.1,0023.72,0015.08
2021-08-18 01:42:00,,0821.8,5.00,0.00,28.9,26.8,00.0,38.0,30.7,22.1,0023.40,0015.03
2021-08-18 01:43:00,,0821.8,4.99,0.00,29.0,27.2,00.0,38.0,30.8,22.1,0023.18,0014.91
2021-08-18 01:44:00,,0821.8,5.00,0.00,29.0,27.5,00.0,38.0,30.9,22.1,0023.60,0014.81
2021-08-18 01:45:00,,0821.8,5.00,0.00,29.1,27.8,00.0,38.1,31.0,21.7,0023.61,0014.80
2021-08-18 01:46:00,,0821.8,5.00,0.00,29.1,28.0,00.0,38.1,31.1,21.7,0023.24,0014.77
2021-08-18 01:47:00,,0821.8,4.98,0.00,29.2,28.3,00.0,38.1,31.2,21.6,0022.52,0014.79
2021-08-18 01:48:00,,0821.8,5.01,0.00,29.3,28.4,00.0,38.1,31.2,21.7,0022.25,0014.77
2021-08-18 01:49:00,,0821.8,4.99,0.00,29.3,28.1,00.0,38.2,31.1,21.6,0021.32,0014.73
2021-08-18 01:50:00,,0821.8,5.00,0.00,29.2,26.3,00.0,38.2,30.6,21.6,0021.33,0014.72
2021-08-18 01:51:00,,0821.9,5.00,0.00,29.1,25.5,00.0,38.1,30.4,21.7,0021.15,0014.71
2021-08-18 01:52:00,,0821.8,5.01,0.00,29.0,25.8,00.0,38.1,30.4,21.7,0021.29,0014.77
2021-08-18 01:53:00,,0821.8,5.00,0.00,28.9,26.2,00.0,38.1,30.6,21.7,0022.06,0014.86
2021-08-18 01:54:00,,0821.8,5.00,0.00,28.9,26.7,00.0,38.1,30.7,21.6,0022.23,0014.96
2021-08-18 01:55:00,,0822.0,5.00,0.00,29.0,27.1,00.0,38.0,30.8,21.6,0022.69,0015.05
2021-08-18 01:56:00,,0821.9,4.99,0.00,29.0,27.4,00.0,38.0,30.9,21.4,0023.02,0015.08
2021-08-18 01:57:00,,0821.9,4.99,0.00,29.1,27.8,00.0,38.1,31.0,21.4,0022.99,0015.09
2021-08-18 01:58:00,,0822.4,5.01,0.00,29.1,28.0,00.0,38.1,31.1,21.4,0022.61,0015.07
2021-08-18 01:59:00,,0822.2,4.99,0.00,29.2,28.2,00.0,38.1,31.2,21.4,0022.64,0015.09
